When you browse on this site, cookies collect data to enhance your experience and personalize the content and advertising you see.
Visit our Privacy Policy to learn more. By continuing to use the site, you agree to this use of cookies and data.
  • In Czech Republic
  • List of Countries
  • For 7 days
  • Water Temperature
  • Satellite Maps
  • Weather Map
  • Weather Widgets
  • user-avatar
    Login

    Hourly Weather Jaunde

    Today, 26 April, Friday

    Time Temperature Precipitation Wind Pressure Humidity
    00:00 +24°C° 1.1 mm 1 mps 697 mmHg 97%
    01:00 +23°C° 0 mm 1 mps 698 mmHg 97%
    02:00 +23°C° 0.9 mm 1 mps 697 mmHg 97%
    03:00 +23°C° 0.9 mm 1 mps 697 mmHg 97%
    04:00 +23°C° 0.9 mm 1 mps 697 mmHg 97%
    05:00 +23°C° 0 mm 1 mps 697 mmHg 97%
    06:00 +23°C° 0 mm 1 mps 697 mmHg 96%
    07:00 +21°C° 0 mm 0 mps 697 mmHg 96%
    08:00 +26°C° 0 mm 1 mps 698 mmHg 86%
    09:00 +28°C° 0 mm 1 mps 698 mmHg 75%
    10:00 +30°C° 0 mm 1 mps 699 mmHg 65%
    11:00 +31°C° 0.4 mm 1 mps 698 mmHg 64%
    12:00 +32°C° 0.4 mm 1 mps 698 mmHg 64%
    13:00 +32°C° 0.4 mm 1 mps 697 mmHg 63%
    14:00 +32°C° 0.3 mm 1 mps 697 mmHg 62%
    15:00 +32°C° 0.3 mm 1 mps 696 mmHg 62%
    16:00 +32°C° 0.3 mm 1 mps 695 mmHg 61%
    17:00 +30°C° 0.4 mm 1 mps 695 mmHg 71%
    18:00 +28°C° 0.4 mm 1 mps 695 mmHg 81%
    19:00 +26°C° 0.4 mm 1 mps 695 mmHg 91%
    20:00 +25°C° 0.1 mm 1 mps 696 mmHg 92%
    21:00 +25°C° 0.1 mm 1 mps 696 mmHg 93%
    22:00 +25°C° 0.1 mm 1 mps 697 mmHg 95%
    23:00 +25°C° 0 mm 1 mps 697 mmHg 95%

    Tomorrow, 27 April, Saturday

    Time Temperature Precipitation Wind Pressure Humidity
    00:00 +24°C° 0 mm 1 mps 697 mmHg 96%
    01:00 +24°C° 0 mm 1 mps 696 mmHg 96%
    02:00 +24°C° 0 mm 1 mps 696 mmHg 97%
    03:00 +23°C° 0 mm 1 mps 696 mmHg 97%
    04:00 +23°C° 0 mm 1 mps 695 mmHg 97%
    05:00 +23°C° 0 mm 1 mps 696 mmHg 96%
    06:00 +24°C° 0 mm 1 mps 696 mmHg 95%
    07:00 +24°C° 0 mm 1 mps 696 mmHg 94%
    08:00 +26°C° 0 mm 1 mps 697 mmHg 84%
    09:00 +28°C° 0 mm 1 mps 698 mmHg 75%
    10:00 +30°C° 0 mm 1 mps 698 mmHg 65%
    11:00 +31°C° 0 mm 1 mps 698 mmHg 60%
    12:00 +32°C° 0 mm 1 mps 697 mmHg 56%
    13:00 +34°C° 0 mm 1 mps 697 mmHg 51%
    14:00 +33°C° 0.1 mm 1 mps 696 mmHg 54%
    15:00 +33°C° 0.1 mm 1 mps 696 mmHg 56%
    16:00 +32°C° 0.1 mm 2 mps 695 mmHg 59%
    17:00 +30°C° 0.4 mm 1 mps 695 mmHg 70%
    18:00 +28°C° 0.4 mm 1 mps 695 mmHg 81%
    19:00 +26°C° 0.4 mm 1 mps 695 mmHg 92%
    20:00 +25°C° 0.3 mm 1 mps 696 mmHg 93%
    21:00 +25°C° 0.3 mm 1 mps 697 mmHg 95%
    22:00 +25°C° 0.3 mm 1 mps 697 mmHg 96%
    23:00 +24°C° 0.3 mm 1 mps 697 mmHg 97%

    Day after tomorrow, 28 April, Sunday

    Time Temperature Precipitation Wind Pressure Humidity
    00:00 +24°C° 0.3 mm 1 mps 697 mmHg 97%
    01:00 +24°C° 0.3 mm 1 mps 697 mmHg 97%
    02:00 +24°C° 0 mm 1 mps 696 mmHg 97%
    03:00 +23°C° 0 mm 1 mps 696 mmHg 97%
    04:00 +23°C° 0 mm 1 mps 696 mmHg 97%
    05:00 +23°C° 0 mm 1 mps 696 mmHg 96%
    06:00 +24°C° 0 mm 1 mps 696 mmHg 96%
    07:00 +24°C° 0 mm 1 mps 697 mmHg 95%
    08:00 +26°C° 0 mm 1 mps 698 mmHg 86%
    09:00 +28°C° 0 mm 1 mps 698 mmHg 77%
    10:00 +30°C° 0 mm 2 mps 699 mmHg 67%
    11:00 +31°C° 0.1 mm 1 mps 699 mmHg 64%
    12:00 +32°C° 0.1 mm 1 mps 698 mmHg 60%
    13:00 +33°C° 0.1 mm 1 mps 697 mmHg 56%
    14:00 +32°C° 0.9 mm 1 mps 697 mmHg 63%
    15:00 +31°C° 0.9 mm 1 mps 696 mmHg 71%
    16:00 +30°C° 0.9 mm 1 mps 695 mmHg 79%
    17:00 +28°C° 0.3 mm 1 mps 696 mmHg 83%
    18:00 +27°C° 0.3 mm 1 mps 696 mmHg 88%
    19:00 +25°C° 0.3 mm 1 mps 696 mmHg 93%
    20:00 +25°C° 0 mm 1 mps 697 mmHg 94%
    21:00 +25°C° 0 mm 1 mps 697 mmHg 95%
    22:00 +25°C° 0 mm 1 mps 698 mmHg 96%
    23:00 +24°C° 0 mm 1 mps 698 mmHg 96%

    29 April, Monday

    Time Temperature Precipitation Wind Pressure Humidity
    00:00 +24°C° 0 mm 1 mps 697 mmHg 97%
    01:00 +24°C° 0 mm 1 mps 697 mmHg 97%
    02:00 +24°C° 0 mm 1 mps 697 mmHg 97%
    03:00 +23°C° 0 mm 1 mps 696 mmHg 97%
    04:00 +23°C° 0 mm 1 mps 696 mmHg 97%
    05:00 +24°C° 0 mm 1 mps 697 mmHg 96%
    06:00 +24°C° 0 mm 1 mps 697 mmHg 95%
    07:00 +24°C° 0 mm 1 mps 698 mmHg 93%
    08:00 +26°C° 0 mm 1 mps 698 mmHg 84%
    09:00 +28°C° 0 mm 1 mps 699 mmHg 75%
    10:00 +30°C° 0 mm 1 mps 700 mmHg 65%
    11:00 +30°C° 0.9 mm 1 mps 699 mmHg 67%
    12:00 +31°C° 0.9 mm 1 mps 698 mmHg 69%
    13:00 +31°C° 0.9 mm 1 mps 698 mmHg 71%
    14:00 +30°C° 2.3 mm 1 mps 697 mmHg 77%
    15:00 +27°C° 2.3 mm 0 mps 697 mmHg 83%
    16:00 +26°C° 2.3 mm 0 mps 696 mmHg 89%
    17:00 +25°C° 0.5 mm 0 mps 697 mmHg 91%
    18:00 +24°C° 0.5 mm 0 mps 697 mmHg 93%
    19:00 +23°C° 0.5 mm 0 mps 697 mmHg 95%
    20:00 +22°C° 0 mm 0 mps 698 mmHg 95%
    21:00 +22°C° 0 mm 0 mps 698 mmHg 96%
    22:00 +22°C° 0 mm 0 mps 698 mmHg 97%
    23:00 +22°C° 0 mm 0 mps 698 mmHg 97%

    30 April, Tuesday

    Time Temperature Precipitation Wind Pressure Humidity
    00:00 +23°C° 0 mm 1 mps 697 mmHg 97%
    01:00 +23°C° 0 mm 1 mps 697 mmHg 97%
    02:00 +23°C° 0 mm 1 mps 697 mmHg 98%
    03:00 +23°C° 0 mm 1 mps 697 mmHg 98%
    04:00 +23°C° 0 mm 1 mps 696 mmHg 98%
    05:00 +23°C° 0 mm 1 mps 697 mmHg 98%
    06:00 +22°C° 0 mm 0 mps 697 mmHg 97%
    07:00 +22°C° 0 mm 0 mps 698 mmHg 96%
    08:00 +23°C° 0 mm 0 mps 698 mmHg 92%
    09:00 +26°C° 0 mm 1 mps 699 mmHg 88%
    10:00 +27°C° 0 mm 1 mps 699 mmHg 84%
    11:00 +28°C° 0 mm 1 mps 698 mmHg 74%
    12:00 +30°C° 0 mm 1 mps 698 mmHg 65%
    13:00 +32°C° 0 mm 1 mps 697 mmHg 55%
    14:00 +32°C° 0.3 mm 1 mps 697 mmHg 57%
    15:00 +32°C° 0.3 mm 1 mps 696 mmHg 60%
    16:00 +31°C° 0.3 mm 1 mps 696 mmHg 62%
    17:00 +29°C° 1 mm 1 mps 696 mmHg 72%
    18:00 +27°C° 1 mm 1 mps 696 mmHg 82%
    19:00 +25°C° 1 mm 1 mps 696 mmHg 92%
    20:00 +24°C° 0 mm 1 mps 697 mmHg 93%
    21:00 +24°C° 0 mm 1 mps 697 mmHg 95%
    22:00 +24°C° 0 mm 1 mps 697 mmHg 96%
    23:00 +24°C° 0.1 mm 1 mps 697 mmHg 97%

    1 May, Wednesday

    Time Temperature Precipitation Wind Pressure Humidity
    00:00 +24°C° 0.1 mm 1 mps 697 mmHg 97%
    01:00 +24°C° 0.1 mm 1 mps 696 mmHg 98%
    02:00 +23°C° 0.2 mm 1 mps 696 mmHg 98%
    03:00 +23°C° 0.2 mm 1 mps 696 mmHg 98%
    04:00 +21°C° 0.2 mm 0 mps 696 mmHg 98%
    05:00 +22°C° 0 mm 0 mps 696 mmHg 97%
    06:00 +22°C° 0 mm 0 mps 697 mmHg 97%
    07:00 +22°C° 0 mm 0 mps 697 mmHg 96%
    08:00 +24°C° 0 mm 0 mps 698 mmHg 84%
    09:00 +27°C° 0 mm 0 mps 698 mmHg 71%
    10:00 +32°C° 0 mm 1 mps 699 mmHg 59%
    11:00 +32°C° 0.5 mm 1 mps 698 mmHg 59%
    12:00 +33°C° 0.5 mm 1 mps 698 mmHg 59%
    13:00 +33°C° 0.5 mm 1 mps 697 mmHg 60%
    14:00 +32°C° 2 mm 1 mps 696 mmHg 63%
    15:00 +32°C° 2 mm 1 mps 696 mmHg 66%
    16:00 +31°C° 2 mm 1 mps 695 mmHg 69%
    17:00 +29°C° 1.5 mm 1 mps 695 mmHg 77%
    18:00 +27°C° 1.5 mm 1 mps 696 mmHg 85%
    19:00 +25°C° 1.5 mm 1 mps 696 mmHg 93%
    20:00 +25°C° 0.4 mm 1 mps 696 mmHg 94%
    21:00 +24°C° 0.4 mm 1 mps 696 mmHg 95%
    22:00 +24°C° 0.4 mm 1 mps 697 mmHg 96%
    23:00 +24°C° 0.2 mm 1 mps 697 mmHg 97%
    Show more